• In Czech Republic
  • List of Countries
  • For 7 days
  • Water Temperature
  • Satellite Maps
  • Weather Map
  • Weather Widgets
  • user-avatar
    Login

    Hourly Weather Korçe

    Today, 26 September, Tuesday

    Time Temperature Precipitation Wind Pressure Humidity
    00:00 +10°C° 0 mm 1 mps 667 mmHg 85%
    01:00 +10°C° 0 mm 1 mps 667 mmHg 85%
    02:00 +10°C° 0 mm 1 mps 666 mmHg 85%
    03:00 +9°C° 0 mm 1 mps 666 mmHg 85%
    04:00 +9°C° 0 mm 1 mps 666 mmHg 86%
    05:00 +10°C° 0 mm 1 mps 667 mmHg 83%
    06:00 +11°C° 0 mm 1 mps 667 mmHg 80%
    07:00 +11°C° 0 mm 1 mps 667 mmHg 77%
    08:00 +13°C° 0 mm 1 mps 668 mmHg 68%
    09:00 +15°C° 0 mm 1 mps 668 mmHg 60%
    10:00 +19°C° 0 mm 1 mps 669 mmHg 52%
    11:00 +19°C° 0.1 mm 1 mps 669 mmHg 50%
    12:00 +19°C° 0.1 mm 1 mps 669 mmHg 48%
    13:00 +19°C° 0.1 mm 2 mps 669 mmHg 46%
    14:00 +18°C° 0.2 mm 2 mps 669 mmHg 50%
    15:00 +17°C° 0.2 mm 2 mps 669 mmHg 54%
    16:00 +17°C° 0.2 mm 2 mps 669 mmHg 58%
    17:00 +15°C° 0.1 mm 1 mps 669 mmHg 65%
    18:00 +14°C° 0.1 mm 1 mps 668 mmHg 71%
    19:00 +13°C° 0.1 mm 1 mps 668 mmHg 78%
    20:00 +12°C° 0 mm 1 mps 668 mmHg 80%
    21:00 +12°C° 0 mm 1 mps 669 mmHg 81%
    22:00 +11°C° 0 mm 1 mps 669 mmHg 83%
    23:00 +11°C° 0 mm 1 mps 669 mmHg 84%

    Tomorrow, 27 September, Wednesday

    Time Temperature Precipitation Wind Pressure Humidity
    00:00 +11°C° 0 mm 1 mps 669 mmHg 85%
    01:00 +10°C° 0 mm 1 mps 668 mmHg 85%
    02:00 +10°C° 0 mm 1 mps 668 mmHg 86%
    03:00 +10°C° 0 mm 1 mps 668 mmHg 86%
    04:00 +10°C° 0 mm 1 mps 668 mmHg 86%
    05:00 +10°C° 0 mm 1 mps 669 mmHg 83%
    06:00 +11°C° 0 mm 1 mps 669 mmHg 80%
    07:00 +12°C° 0 mm 1 mps 670 mmHg 76%
    08:00 +14°C° 0 mm 1 mps 670 mmHg 69%
    09:00 +16°C° 0 mm 1 mps 671 mmHg 61%
    10:00 +19°C° 0 mm 1 mps 671 mmHg 53%
    11:00 +19°C° 0.1 mm 1 mps 671 mmHg 51%
    12:00 +20°C° 0.1 mm 1 mps 671 mmHg 49%
    13:00 +19°C° 0.1 mm 2 mps 671 mmHg 46%
    14:00 +18°C° 0.1 mm 2 mps 671 mmHg 50%
    15:00 +18°C° 0.1 mm 2 mps 671 mmHg 53%
    16:00 +17°C° 0.1 mm 2 mps 671 mmHg 56%
    17:00 +16°C° 0.1 mm 1 mps 671 mmHg 63%
    18:00 +15°C° 0.1 mm 1 mps 671 mmHg 69%
    19:00 +14°C° 0.1 mm 1 mps 671 mmHg 75%
    20:00 +13°C° 0.1 mm 1 mps 671 mmHg 76%
    21:00 +13°C° 0.1 mm 1 mps 671 mmHg 77%
    22:00 +13°C° 0.1 mm 1 mps 671 mmHg 78%
    23:00 +12°C° 0.1 mm 1 mps 671 mmHg 80%

    Day after tomorrow, 28 September, Thursday

    Time Temperature Precipitation Wind Pressure Humidity
    00:00 +12°C° 0.1 mm 1 mps 671 mmHg 81%
    01:00 +12°C° 0.1 mm 1 mps 671 mmHg 82%
    02:00 +11°C° 0.1 mm 1 mps 670 mmHg 83%
    03:00 +11°C° 0.1 mm 1 mps 670 mmHg 84%
    04:00 +11°C° 0.1 mm 1 mps 670 mmHg 85%
    05:00 +11°C° 0 mm 1 mps 670 mmHg 83%
    06:00 +12°C° 0 mm 2 mps 671 mmHg 81%
    07:00 +12°C° 0 mm 2 mps 671 mmHg 80%
    08:00 +14°C° 0 mm 2 mps 671 mmHg 73%
    09:00 +15°C° 0 mm 2 mps 672 mmHg 67%
    10:00 +17°C° 0 mm 2 mps 672 mmHg 60%
    11:00 +17°C° 0.3 mm 2 mps 672 mmHg 59%
    12:00 +18°C° 0.3 mm 2 mps 672 mmHg 57%
    13:00 +18°C° 0.3 mm 2 mps 672 mmHg 55%
    14:00 +17°C° 0.9 mm 2 mps 672 mmHg 58%
    15:00 +17°C° 0.9 mm 2 mps 672 mmHg 62%
    16:00 +16°C° 0.9 mm 2 mps 671 mmHg 65%
    17:00 +15°C° 0.8 mm 2 mps 671 mmHg 71%
    18:00 +14°C° 0.8 mm 2 mps 671 mmHg 76%
    19:00 +13°C° 0.8 mm 1 mps 671 mmHg 81%
    20:00 +13°C° 0.3 mm 1 mps 671 mmHg 83%
    21:00 +12°C° 0.3 mm 2 mps 671 mmHg 84%
    22:00 +12°C° 0.3 mm 2 mps 671 mmHg 86%
    23:00 +10°C° 0 mm 2 mps 671 mmHg 86%

    29 September, Friday

    Time Temperature Precipitation Wind Pressure Humidity
    00:00 +10°C° 0 mm 2 mps 670 mmHg 87%
    01:00 +10°C° 0 mm 2 mps 670 mmHg 88%
    02:00 +9°C° 0 mm 2 mps 670 mmHg 88%
    03:00 +9°C° 0 mm 2 mps 670 mmHg 88%
    04:00 +9°C° 0 mm 2 mps 669 mmHg 88%
    05:00 +9°C° 0 mm 2 mps 670 mmHg 86%
    06:00 +10°C° 0 mm 2 mps 670 mmHg 84%
    07:00 +10°C° 0 mm 2 mps 670 mmHg 82%
    08:00 +12°C° 0 mm 2 mps 670 mmHg 74%
    09:00 +14°C° 0 mm 2 mps 671 mmHg 67%
    10:00 +16°C° 0 mm 2 mps 671 mmHg 59%
    11:00 +16°C° 0.1 mm 2 mps 671 mmHg 58%
    12:00 +16°C° 0.1 mm 2 mps 671 mmHg 57%
    13:00 +17°C° 0.1 mm 2 mps 671 mmHg 56%
    14:00 +16°C° 0.5 mm 2 mps 670 mmHg 59%
    15:00 +15°C° 0.5 mm 2 mps 670 mmHg 62%
    16:00 +15°C° 0.5 mm 2 mps 670 mmHg 65%
    17:00 +14°C° 0.4 mm 2 mps 670 mmHg 70%
    18:00 +13°C° 0.4 mm 1 mps 670 mmHg 74%
    19:00 +12°C° 0.4 mm 1 mps 669 mmHg 79%
    20:00 +11°C° 0.1 mm 1 mps 669 mmHg 81%
    21:00 +10°C° 0.1 mm 2 mps 669 mmHg 82%
    22:00 +9°C° 0.1 mm 2 mps 669 mmHg 84%
    23:00 +9°C° 0 mm 2 mps 669 mmHg 84%

    30 September, Saturday

    Time Temperature Precipitation Wind Pressure Humidity
    00:00 +9°C° 0 mm 2 mps 669 mmHg 84%
    01:00 +8°C° 0 mm 2 mps 669 mmHg 84%
    02:00 +8°C° 0 mm 2 mps 669 mmHg 84%
    03:00 +8°C° 0 mm 2 mps 668 mmHg 84%
    04:00 +8°C° 0 mm 2 mps 668 mmHg 83%
    05:00 +8°C° 0 mm 2 mps 668 mmHg 81%
    06:00 +9°C° 0 mm 2 mps 668 mmHg 79%
    07:00 +9°C° 0 mm 2 mps 669 mmHg 77%
    08:00 +12°C° 0 mm 2 mps 669 mmHg 70%
    09:00 +13°C° 0 mm 2 mps 669 mmHg 62%
    10:00 +15°C° 0 mm 1 mps 670 mmHg 55%
    11:00 +15°C° 0 mm 1 mps 669 mmHg 54%
    12:00 +15°C° 0 mm 1 mps 669 mmHg 54%
    13:00 +16°C° 0 mm 1 mps 669 mmHg 53%
    14:00 +15°C° 0.1 mm 1 mps 669 mmHg 55%
    15:00 +15°C° 0.1 mm 1 mps 668 mmHg 57%
    16:00 +14°C° 0.1 mm 1 mps 668 mmHg 59%
    17:00 +14°C° 0.2 mm 1 mps 668 mmHg 63%
    18:00 +13°C° 0.2 mm 1 mps 668 mmHg 66%
    19:00 +12°C° 0.2 mm 1 mps 668 mmHg 70%
    20:00 +11°C° 0 mm 1 mps 668 mmHg 72%
    21:00 +11°C° 0 mm 1 mps 668 mmHg 74%
    22:00 +10°C° 0 mm 1 mps 668 mmHg 77%
    23:00 +10°C° 0 mm 1 mps 668 mmHg 77%

    1 October, Sunday

    Time Temperature Precipitation Wind Pressure Humidity
    00:00 +9°C° 0 mm 1 mps 668 mmHg 77%
    01:00 +9°C° 0 mm 1 mps 668 mmHg 78%
    02:00 +9°C° 0 mm 1 mps 668 mmHg 78%
    03:00 +9°C° 0 mm 1 mps 668 mmHg 77%
    04:00 +9°C° 0 mm 1 mps 668 mmHg 77%
    05:00 +10°C° 0 mm 1 mps 668 mmHg 76%
    06:00 +10°C° 0 mm 1 mps 668 mmHg 75%
    07:00 +10°C° 0 mm 1 mps 668 mmHg 74%
    08:00 +12°C° 0 mm 1 mps 669 mmHg 66%
    09:00 +14°C° 0 mm 1 mps 669 mmHg 59%
    10:00 +15°C° 0 mm 1 mps 670 mmHg 52%
    11:00 +16°C° 0.1 mm 1 mps 670 mmHg 52%
    12:00 +16°C° 0.1 mm 1 mps 669 mmHg 52%
    13:00 +16°C° 0.1 mm 1 mps 669 mmHg 52%
    14:00 +15°C° 0.4 mm 1 mps 669 mmHg 55%
    15:00 +15°C° 0.4 mm 1 mps 669 mmHg 57%
    16:00 +15°C° 0.4 mm 1 mps 669 mmHg 60%
    17:00 +13°C° 0.2 mm 1 mps 669 mmHg 65%
    18:00 +12°C° 0.2 mm 1 mps 669 mmHg 71%
    19:00 +10°C° 0.2 mm 0 mps 669 mmHg 77%
    20:00 +11°C° 0.1 mm 1 mps 669 mmHg 78%
    21:00 +10°C° 0.1 mm 1 mps 669 mmHg 79%
    22:00 +10°C° 0.1 mm 1 mps 669 mmHg 81%
    23:00 +9°C° 0 mm 1 mps 669 mmHg 81%
    Show more